sat.trackr.live / text

‹ back to catalog

STARLINK-1912

NORAD 47178 · 2020-088BJ

PAYLOAD ACTIVE UNKNOWN

§ Identity

Operator
Country
US
Launch date
2020-11-25
Launch site
AFETR
Launch vehicle
Mass (kg)
RCS (m²)

Purposes: comms

External: N2YO · Heavens-Above · Gunter

§ Orbital elements

Epoch: 2026-05-24T18:34:30.861984Z

Period
91.74 min
Inclination
53.0457°
Eccentricity
0.0002700
Mean motion
15.69596987 rev/d
Perigee alt
358.2 km
Apogee alt
361.9 km
Semi-major
6,738.2 km
B*
6.2461e-4
RAAN
268.8095°
Arg perigee
46.5533°
Mean anomaly
313.5707°
Rev number
30,402

§ Raw data

STARLINK-19121 47178U 20088BJ  26144.77396831  .00075433  00000+0  62461-3 0  99992 47178  53.0457 268.8095 0002700  46.5533 313.5707 15.69596987304026

JSON: /api/v1/satellites/47178 · /tle

For live sub-satellite position, see the globe view (requires WebGL).

§ Visibility from observer

Set your observer location to see the next 7 days of passes ≥ 10°. The values pass through the URL so the page stays shareable.

No JS? Fill the form by hand. The geolocation button needs JavaScript.